Powrót do katalogu

AYAME 2 DEB

AktywnyHEO
NORAD 38685·DEBRIS·🇯🇵 Japan

Wystrzelony Feb 22, 1980 z Tanegashima Space Center

Loading…

Następne Przeloty (najbliższe 24 godziny)

TLE

ŚwieżeSource: Space-Track

Epoka: Sep 11, 2026, 20:53 UTC

1 38685U 80018F   26254.87043147 -.00000166  00000-0  00000+0 0  9993
2 38685  10.2042  12.4816 4387771 346.5724   4.6791  1.76288011 91147

Śledź AYAME 2 DEB w czasie rzeczywistym z AllMySat

Download on the App Store